Location: Appeville
(49.3218°N, 1.3427°W)
Time: 22:24:55
(UTC+00:00)

FENGYUN 3A - Pass Details

Date: 08 December 2019
Orbit: 823 x 837 km, 98.4° (Epoch: 19 January)

Event Time Altitude Azimuth Distance (km) Brightness Sun altitude
Rises 05:54:02 0° 12° (NNE) 3,383 6.8 -17.5°
Reaches altitude 10° 05:56:24 10° 11° (NNE) 2,443 6.1 -17.1°
Maximum altitude 06:01:48 75° 288° (WNW) 861 3.5 -16.3°
Drops below altitude 10° 06:07:09 10° 204° (SSW) 2,419 6.0 -15.4°
Sets 06:09:29 0° 202° (SSW) 3,347 6.8 -15.1°
